Location: Gull Harbor
(47.1000°N, 122.9000°W)
Time: 19:40:38
(UTC-08:00)

ISS - Visible Passes

Search period start: 18 February 2026 00:00
Search period end: 28 February 2026 00:00
Orbit: 413 x 428 km, 51.6° (Epoch: 18 February)

Date Brightness Start Highest point End Pass type
(mag) Time Alt. Az. Time Alt. Az. Time Alt. Az.
18 Feb -3.7 05:12:24 77° E 05:12:24 77° E 05:15:33 10° ENE visible
19 Feb -1.1 04:27:10 20° ENE 04:27:10 20° ENE 04:28:22 10° ENE visible
19 Feb -3.1 06:00:09 21° WNW 06:01:59 43° NNW 06:05:13 10° ENE visible
20 Feb -3.4 05:14:51 52° N 05:14:51 52° N 05:18:01 10° ENE visible
21 Feb -1.3 04:29:29 22° ENE 04:29:29 22° ENE 04:30:50 10° ENE visible
21 Feb -2.8 06:02:28 17° WNW 06:04:39 36° N 06:07:47 10° ENE visible
22 Feb -2.9 05:17:03 37° NNW 05:17:19 38° N 05:20:29 10° ENE visible
23 Feb -1.5 04:31:37 24° NE 04:31:37 24° NE 04:33:13 10° ENE visible
23 Feb -2.8 06:04:35 13° WNW 06:07:15 39° N 06:10:25 10° E visible
24 Feb -2.7 05:19:08 32° NNW 05:19:53 36° N 05:23:01 10° ENE visible
25 Feb -1.7 04:33:40 27° NE 04:33:40 27° NE 04:35:38 10° ENE visible
25 Feb -3.3 06:06:38 12° WNW 06:09:42 57° NNE 06:13:00 10° E visible
26 Feb -0.1 03:48:12 10° ENE 03:48:12 10° ENE 03:48:15 10° ENE visible
26 Feb -3.0 05:21:10 31° NW 05:22:20 46° NNE 05:25:35 10° E visible
27 Feb -2.1 04:35:44 33° NE 04:35:44 33° NE 04:38:07 10° E visible
27 Feb -3.8 06:08:42 11° WNW 06:11:57 75° SSW 06:15:16 10° ESE visible
